[[{"header":{"parameterUnit":"m.s-1","parameterCategory":1,"la1":30.2991,"la2":30.254,"lo1":-89.0895,"lo2":-89.0444,"dy":0.0017,"dx":0.0017,"nx":28,"ny":28,"refTime":"2025-07-15T21:00:00:Z","depth":0,"parameterNumber":2,"parameterNumberName":"U-component_of_WINDS"},"data":[0,0,0,0,0,0,0,0,0,0,0,0,0,0,0,0,0,0,0,0,0,0,0,0,0,0,0,0,0,0,0,0,0,0,0,0,0,0,0,0,0,0,0,0,0,0,0,0,0,0,0,0,0,0,0,0,0,0,-1.8836,-1.8836,0,-1.8793,-1.8792,-1.8792,-1.8776,-1.8776,-1.8776,-1.8777,-1.8723,-1.8721,-1.8719,0,0,0,0,0,0,0,0,0,0,0,0,0,-1.89,-1.8899,-1.8836,-1.8836,-1.8835,-1.8793,-1.8792,-1.8791,-1.8776,-1.8776,-1.8776,-1.8777,-1.8723,-1.8721,-1.8719,0,0,0,0,0,0,0,0,0,0,0,0,0,-1.8866,-1.8899,-1.8837,-1.8823,-1.8821,-1.8793,-1.8792,-1.8791,-1.8776,-1.8776,-1.8776,-1.8777,-1.8724,-1.8721,-1.8719,-1.8699,0,0,-1.8712,-1.8711,0,0,0,0,0,0,0,0,-1.8868,-1.8864,-1.8825,-1.8824,-1.8822,-1.879,-1.8795,-1.876,-1.8776,-1.8793,-1.8777,-1.8777,-1.8744,-1.874,-1.8731,-1.8696,-1.8694,-1.8711,-1.871,-1.8709,-1.8708,0,0,0,0,0,0,0,-1.887,-1.8865,-1.8819,-1.8825,-1.8823,-1.8817,-1.8812,-1.8788,-1.8767,-1.8791,-1.879,-1.8786,-1.8743,-1.8733,-1.873,-1.8693,-1.8712,-1.8709,-1.8708,-1.8707,-1.8641,-1.864,0,0,0,0,0,0,-1.8876,-1.8868,-1.882,-1.8818,-1.8846,-1.8815,-1.881,-1.88,-1.8768,-1.8763,-1.8785,-1.8785,-1.8737,-1.8733,-1.8728,-1.8703,-1.8709,-1.8707,-1.8705,-1.8641,-1.8641,-1.864,0,0,0,0,0,0,-1.8878,-1.8872,-1.8822,-1.8842,-1.8836,-1.8814,-1.8802,-1.8799,-1.8789,-1.8763,-1.8759,-1.878,-1.8737,-1.8731,-1.8707,-1.8701,-1.8706,-1.8703,-1.8641,-1.8641,-1.864,-1.8652,0,0,0,0,0,0,-1.888,-1.8873,-1.8866,-1.8842,-1.8835,-1.8804,-1.8802,-1.8798,-1.8786,-1.8785,-1.8757,-1.8752,-1.8737,-1.8711,-1.8705,-1.8697,-1.8702,-1.8642,-1.8641,-1.8641,-1.8652,-1.8652,-1.8652,0,0,0,0,0,-1.8882,-1.8869,-1.8866,-1.886,-1.8826,-1.8804,-1.8799,-1.8785,-1.8786,-1.8778,-1.8762,-1.8753,-1.8703,-1.8708,-1.8701,-1.8693,-1.8642,-1.8641,-1.8641,-1.8652,-1.8652,-1.8652,0,0,0,0,0,0,-1.8889,-1.8865,-1.8862,-1.8841,-1.8825,-1.8801,-1.8791,-1.8785,-1.8766,-1.8765,-1.8746,-1.874,-1.8717,-1.8703,-1.8709,-1.8673,-1.8672,-1.867,-1.8683,-1.8683,-1.8683,-1.8686,-1.87,0,0,0,0,0,-1.8889,-1.8875,-1.8854,-1.8838,-1.883,-1.8812,-1.8802,-1.8793,-1.8774,-1.8766,-1.8748,-1.8728,-1.8708,-1.8694,-1.8674,-1.8651,-1.8644,-1.8642,-1.8642,-1.8642,-1.864,-1.8627,-1.8626,-1.8638,-1.8638,-1.8638,0,0,-1.8886,-1.8872,-1.8864,-1.8839,-1.8825,-1.881,-1.8806,-1.8789,-1.8777,-1.8762,-1.874,-1.8726,-1.8702,-1.8679,-1.8667,-1.8666,-1.8636,-1.8641,-1.8641,-1.8639,-1.8627,-1.8626,-1.8625,-1.8637,-1.8638,-1.8638,0,0,-1.8875,-1.8863,-1.8849,-1.8837,-1.8818,-1.8806,-1.8803,-1.8781,-1.8772,-1.875,-1.8739,-1.8723,-1.8689,-1.8673,-1.866,-1.8647,-1.8638,-1.864,-1.8639,-1.8628,-1.8627,-1.8626,-1.8621,-1.862,-1.8638,-1.8638,-1.8638,0,-1.8874,-1.8853,-1.8842,-1.8827,-1.8816,-1.8806,-1.8791,-1.8778,-1.8752,-1.8744,-1.8744,-1.8703,-1.8686,-1.8659,-1.8657,-1.8646,-1.8641,-1.8643,-1.8628,-1.8627,-1.8626,-1.8622,-1.862,-1.8639,-1.8639,-1.8639,-1.8639,0,-1.8853,-1.8838,-1.8829,-1.8808,-1.8796,-1.8781,-1.8766,-1.8755,-1.8748,-1.8736,-1.8714,-1.8694,-1.8671,-1.8664,-1.8655,-1.8636,-1.8637,-1.8633,-1.8631,-1.8626,-1.8621,-1.8619,-1.864,-1.8639,-1.8639,-1.8639,0,0,-1.8842,-1.8819,-1.8815,-1.8807,-1.8786,-1.8773,-1.8758,-1.8738,-1.8729,-1.8712,-1.8698,-1.8671,-1.8668,-1.8654,-1.8643,-1.8633,-1.8625,-1.863,-1.8629,-1.863,-1.8604,-1.8607,-1.8605,-1.8619,-1.8619,-1.8619,-1.8606,0,-1.8829,-1.8803,-1.8794,-1.8772,-1.8758,-1.875,-1.8736,-1.8721,-1.8711,-1.8696,-1.8683,-1.8664,-1.8662,-1.8654,-1.8643,-1.8628,-1.8619,-1.8629,-1.8604,-1.8604,-1.8611,-1.8603,-1.8605,-1.8594,-1.8604,-1.8604,-1.8603,0,-1.8808,-1.8795,-1.8773,-1.8756,-1.875,-1.8738,-1.8721,-1.8707,-1.869,-1.8683,-1.867,-1.866,-1.8642,-1.8643,-1.8618,-1.8625,-1.8615,-1.8606,-1.8605,-1.8602,-1.8603,-1.8599,-1.859,-1.8589,-1.86,-1.8601,-1.8601,0,-1.8804,-1.878,-1.8764,-1.8757,-1.8737,-1.8729,-1.872,-1.8703,-1.8693,-1.8677,-1.867,-1.8651,-1.864,-1.8625,-1.8611,-1.8613,-1.8587,-1.8586,-1.8579,-1.858,-1.8573,-1.8574,-1.8563,-1.8567,-1.8567,-1.8567,-1.8567,0,-1.8789,-1.8776,-1.8762,-1.8752,-1.8737,-1.8727,-1.8711,-1.8701,-1.8687,-1.8674,-1.8665,-1.8653,-1.8635,-1.862,-1.8608,-1.859,-1.8584,-1.8577,-1.8574,-1.8578,-1.8579,-1.857,-1.857,-1.8567,-1.8567,-1.8567,-1.8567,0,-1.878,-1.8771,-1.8753,-1.8737,-1.8733,-1.8723,-1.8708,-1.8697,-1.8688,-1.8672,-1.8667,-1.865,-1.8633,-1.8618,-1.8593,-1.8585,-1.8566,-1.8562,-1.8573,-1.8571,-1.8565,-1.8566,-1.8548,-1.8545,-1.8552,-1.8552,-1.8552,0,-1.8772,-1.8762,-1.8746,-1.8738,-1.873,-1.8717,-1.8708,-1.8697,-1.8687,-1.8669,-1.866,-1.8643,-1.8628,-1.86,-1.8584,-1.8566,-1.8562,-1.8557,-1.8558,-1.8563,-1.8562,-1.8563,-1.8562,-1.8556,-1.8556,-1.8556,-1.8556,0,-1.8757,-1.8754,-1.8742,-1.8729,-1.8719,-1.8707,-1.8695,-1.8688,-1.8675,-1.8664,-1.8648,-1.8637,-1.8615,-1.8597,-1.8578,-1.8566,-1.8558,-1.8556,-1.8554,-1.8557,-1.8564,-1.8561,-1.8572,-1.8556,-1.8556,-1.8556,-1.8556,-1.8556,-1.8748,-1.874,-1.8728,-1.8715,-1.8706,-1.8696,-1.8686,-1.8677,-1.8664,-1.8646,-1.864,-1.8624,-1.8608,-1.8582,-1.8571,-1.8556,-1.8555,-1.8551,-1.855,-1.8549,-1.8551,-1.8567,-1.8553,-1.8553,-1.8553,-1.8553,-1.8552,0,-1.8733,-1.8726,-1.8715,-1.87,-1.869,-1.8688,-1.8675,-1.8666,-1.8653,-1.864,-1.8628,-1.8609,-1.8593,-1.8578,-1.856,-1.8552,-1.8548,-1.8548,-1.8548,-1.8546,-1.8552,-1.8556,-1.8551,-1.8551,-1.8551,-1.8551,-1.8551,-1.8551,-1.8724,-1.8711,-1.8706,-1.8688,-1.868,-1.8666,-1.8659,-1.8649,-1.864,-1.8621,-1.8609,-1.86,-1.8586,-1.8569,-1.8553,-1.8549,-1.8543,-1.8543,-1.8538,-1.8544,-1.8545,-1.8545,-1.8549,-1.8542,-1.8542,-1.8533,-1.8533,-1.8533]},{"header":{"parameterUnit":"m.s-1","parameterCategory":1,"la1":30.2991,"la2":30.254,"lo1":-89.0895,"lo2":-89.0444,"dy":0.0017,"dx":0.0017,"nx":28,"ny":28,"refTime":"2025-07-15T21:00:00:Z","depth":0,"parameterNumber":3,"parameterNumberName":"V-component_of_WINDS"},"data":[0,0,0,0,0,0,0,0,0,0,0,0,0,0,0,0,0,0,0,0,0,0,0,0,0,0,0,0,0,0,0,0,0,0,0,0,0,0,0,0,0,0,0,0,0,0,0,0,0,0,0,0,0,0,0,0,0,0,4.6107,4.6109,0,4.6235,4.6237,4.6238,4.6275,4.6275,4.6274,4.6274,4.6396,4.64,4.6404,0,0,0,0,0,0,0,0,0,0,0,0,0,4.5891,4.5895,4.6107,4.6109,4.6111,4.6235,4.6237,4.6238,4.6276,4.6275,4.6274,4.6273,4.6395,4.6399,4.6404,0,0,0,0,0,0,0,0,0,0,0,0,0,4.5998,4.5896,4.6107,4.6144,4.6149,4.6235,4.6237,4.6239,4.6276,4.6275,4.6274,4.6273,4.6393,4.6399,4.6405,4.646,0,0,4.6423,4.6425,0,0,0,0,0,0,0,0,4.5992,4.6006,4.6137,4.6142,4.6147,4.6239,4.6206,4.6313,4.6276,4.6227,4.6274,4.6272,4.6344,4.6354,4.638,4.6466,4.6471,4.6423,4.6427,4.6429,4.6431,0,0,0,0,0,0,0,4.5985,4.6001,4.6158,4.6139,4.6145,4.6153,4.6167,4.6226,4.6289,4.6231,4.6235,4.625,4.6346,4.6374,4.6383,4.6473,4.6423,4.6428,4.6432,4.6434,4.6616,4.6617,0,0,0,0,0,0,4.5972,4.5995,4.6154,4.6162,4.6066,4.6158,4.6174,4.621,4.6289,4.63,4.625,4.6251,4.6365,4.6376,4.6387,4.646,4.6429,4.6434,4.6438,4.6615,4.6616,4.6618,0,0,0,0,0,0,4.5967,4.5986,4.6148,4.6079,4.6101,4.6163,4.6203,4.6213,4.6241,4.6303,4.6314,4.6267,4.6364,4.6379,4.6443,4.6465,4.6437,4.6442,4.6613,4.6615,4.6617,4.6605,0,0,0,0,0,0,4.5961,4.5984,4.6006,4.6079,4.6104,4.6204,4.6205,4.6216,4.6252,4.6254,4.6322,4.6332,4.6365,4.6435,4.6449,4.6472,4.6447,4.6611,4.6614,4.6616,4.6603,4.6606,4.6608,0,0,0,0,0,4.5953,4.5995,4.6007,4.6026,4.6134,4.6205,4.6219,4.6258,4.6253,4.6276,4.6317,4.633,4.6461,4.6441,4.6458,4.6483,4.661,4.6613,4.6616,4.6602,4.6605,4.6608,0,0,0,0,0,0,4.5918,4.6005,4.6019,4.6086,4.6139,4.6211,4.624,4.6259,4.6311,4.631,4.6354,4.6369,4.6431,4.6463,4.644,4.6543,4.6536,4.6542,4.6519,4.6523,4.6525,4.6516,4.6452,0,0,0,0,0,4.5919,4.5971,4.6043,4.6095,4.6122,4.6177,4.6209,4.6235,4.629,4.6311,4.6356,4.6407,4.646,4.6493,4.6545,4.6609,4.6625,4.6635,4.6637,4.6639,4.6644,4.6683,4.6689,4.6628,4.6628,4.6628,0,0,4.5919,4.5973,4.6003,4.609,4.6133,4.6186,4.6194,4.6248,4.6288,4.6318,4.6383,4.6419,4.6478,4.6544,4.6575,4.6572,4.6665,4.6643,4.6644,4.6648,4.6687,4.6693,4.6698,4.663,4.6629,4.6629,0,0,4.5947,4.5993,4.6044,4.6089,4.6156,4.6194,4.6206,4.6277,4.6303,4.637,4.6395,4.6442,4.6531,4.6574,4.6607,4.6659,4.6673,4.6674,4.6686,4.6724,4.6729,4.6733,4.6753,4.676,4.6679,4.6679,4.6679,0,4.5938,4.6021,4.6066,4.6122,4.616,4.6195,4.6246,4.6287,4.6366,4.6391,4.6389,4.6506,4.6547,4.6625,4.6639,4.6664,4.6679,4.6665,4.6725,4.673,4.6735,4.6754,4.6761,4.6679,4.6679,4.6679,4.6679,0,4.6008,4.6065,4.6097,4.6179,4.6221,4.6273,4.6326,4.6363,4.6388,4.6425,4.6494,4.6547,4.6612,4.6633,4.6654,4.6715,4.6712,4.6717,4.671,4.674,4.6759,4.6766,4.6678,4.6678,4.6678,4.6678,0,0,4.6013,4.6124,4.6135,4.6174,4.6254,4.6298,4.6353,4.6421,4.6453,4.6507,4.6555,4.6633,4.664,4.6678,4.6705,4.6739,4.6779,4.674,4.6742,4.6746,4.6851,4.6847,4.6855,4.679,4.6792,4.6793,4.6847,0,4.6053,4.6156,4.6201,4.6282,4.6337,4.6373,4.6422,4.6476,4.6514,4.6564,4.6605,4.6661,4.6665,4.6688,4.6723,4.6767,4.6801,4.6763,4.6834,4.6836,4.6818,4.6865,4.6859,4.6907,4.6854,4.6855,4.6856,0,4.6111,4.6171,4.626,4.6338,4.6362,4.6405,4.6473,4.6521,4.6584,4.6609,4.6655,4.6683,4.6742,4.6733,4.6817,4.6791,4.6823,4.6849,4.6852,4.6859,4.6847,4.6873,4.6923,4.693,4.6868,4.6867,4.6866,0,4.6108,4.6211,4.6279,4.6311,4.6402,4.6432,4.6472,4.6534,4.6573,4.6632,4.6658,4.6722,4.6756,4.6805,4.6849,4.6838,4.6929,4.6923,4.6951,4.695,4.6967,4.6965,4.7023,4.6988,4.6988,4.6988,4.6987,0,4.6147,4.6199,4.6279,4.632,4.6382,4.6434,4.6492,4.6534,4.659,4.664,4.6674,4.672,4.6776,4.6829,4.6863,4.6928,4.6943,4.6965,4.6974,4.6962,4.6959,4.6983,4.698,4.699,4.6989,4.6989,4.6988,0,4.6152,4.6208,4.6284,4.6368,4.639,4.6431,4.6502,4.6544,4.6585,4.6648,4.6666,4.673,4.6795,4.6845,4.6927,4.6951,4.702,4.7029,4.7,4.7004,4.703,4.7027,4.7104,4.7118,4.7073,4.7074,4.7074,0,4.6173,4.6216,4.6306,4.6343,4.6384,4.6443,4.6485,4.6539,4.6581,4.6659,4.6691,4.6759,4.6816,4.6918,4.6971,4.7035,4.7046,4.7069,4.7056,4.7044,4.7048,4.7045,4.705,4.707,4.707,4.707,4.7071,0,4.6205,4.6232,4.6292,4.6364,4.6415,4.6472,4.6531,4.6559,4.6624,4.6669,4.6738,4.6783,4.6871,4.6938,4.7009,4.7048,4.707,4.7075,4.7086,4.7073,4.7055,4.7067,4.7005,4.7072,4.7072,4.7072,4.7072,4.7072,4.6219,4.6261,4.6332,4.6399,4.645,4.6506,4.655,4.66,4.6659,4.6737,4.6765,4.6836,4.6902,4.7,4.7041,4.7096,4.7097,4.7111,4.7115,4.7117,4.7117,4.7048,4.7109,4.7109,4.7109,4.7109,4.7109,0,4.6254,4.6303,4.6365,4.6449,4.6502,4.6523,4.6591,4.6633,4.6697,4.6757,4.6815,4.6895,4.6962,4.7023,4.7093,4.7126,4.7139,4.7143,4.714,4.715,4.7112,4.7097,4.7132,4.7132,4.7132,4.7132,4.7132,4.7132,4.6278,4.635,4.6386,4.6484,4.6533,4.6605,4.6642,4.6694,4.6743,4.6833,4.689,4.6931,4.6993,4.7068,4.7131,4.7147,4.7171,4.7173,4.7191,4.7155,4.7152,4.7149,4.7135,4.7178,4.7178,4.7225,4.7225,4.7226]}]]